Regional Weather Roundup
Issued by NWS

Home | Current Version | Previous Version | Text Only | Print | Product List | Glossary Off
Versions: 1 2 3 4 5 6 7 8 9 10 11 12 13 14 15 16 17 18 19 20 21 22 23 24 25 26 27 28 29 30 31 32 33 34 35 36 37 38 39 40 41 42 43 44 45 46 47 48 49 50

867
ASUS44 KLIX 282011
RWRLA
LOUISIANA WEATHER ROUNDUP
NATIONAL WEATHER SERVICE NEW ORLEANS LA
300 PM CDT SAT MAR 28 2015

NOTE: "FAIR" INDICATES FEW OR NO CLOUDS BELOW 12,000 FEET WITH NO
      SIGNIFICANT WEATHER AND/OR OBSTRUCTIONS TO VISIBILITY.
      SKY/WX - SKY CONDITION AND SIGNIFICANT WEATHER.
      TMP - AIR TEMPERATURE.    DP   - DEWPOINT TEMPERATURE.
      RH  - RELATIVE HUMIDITY.  PRES - PRESSURE.
      HX  - HEAT INDEX.         WCI  - WIND CHILL INDEX.

*  THESE STATIONS ARE NOT NWS OR FAA STATIONS AND ARE NOT UNDER
   NWS QUALITY CONTROL.

LAZ040-048-061>063-065-066-069-282100-
SOUTHEAST LOUISIANA

CITY           SKY/WX    TMP DP  RH WIND       PRES   REMARKS
N.O. AUDUBON     N/A    N/A N/A N/A MISG        N/A
N.O. INTL ARPT MOSUNNY   68  43  40 SW3       30.19F
N.O. LAKEFRONT SUNNY     67  42  40 E10       30.20F
SLIDELL        SUNNY     65  41  41 E5        30.19F
BATON ROUGE    SUNNY     72  44  36 CALM      30.16F
BOOTHVILLE     SUNNY     63  45  51 E10       30.21F
BELLE CHASSE   MOSUNNY   66  44  45 VRB6      30.19F
BOGALUSA*        N/A     67  36  31 S3        30.20F
GALLIANO*      CLEAR     68  47  45 CALM      30.20S
NEW ROADS*     FAIR      69  45  41 SE8       30.16F
GONZALES*      FAIR      70  41  34 CALM      30.17F
HAMMOND*       SUNNY     68  34  28 CALM      30.20F
HOUMA*         SUNNY     70  50  49 S5        30.18F
PORT FOURCHON* CLEAR     63  48  59 E10       30.22F

$$

LAZ041-044-053-054-282100-
SOUTHWEST LOUISIANA

CITY           SKY/WX    TMP DP  RH WIND       PRES   REMARKS
LAKE CHARLES   SUNNY     72  55  55 S9        30.15F
LAFAYETTE      SUNNY     74  49  41 S10       30.15F
PATTERSON      SUNNY     70  48  46 SE7       30.18F
SALT POINT       N/A     68  52  56 VRB6      30.17F
NEW IBERIA     SUNNY     72  48  42 SW12G21   30.17F
CHENAULT AIRPK SUNNY     73  52  46 S9G16     30.15F

$$

LAZ027-028-282100-
CENTRAL LOUISIANA

CITY           SKY/WX    TMP DP  RH WIND       PRES   REMARKS
FORT POLK      SUNNY     73  46  38 SW13      30.11F
ALEXANDRIA INT SUNNY     71  48  43 SE12      30.10F
ALEXANDRIA     SUNNY     71  42  35 VRB3      30.13F

$$

LAZ001-002-282100-
NORTHWEST LOUISIANA

CITY           SKY/WX    TMP DP  RH WIND       PRES   REMARKS
SHREVEPORT     MOSUNNY   75  45  34 S12       30.07F
BARKSDALE AFB  SUNNY     71  46  40 S8        30.08F
DTN SHREVEPORT SUNNY     70  47  43 SE9       30.08F

$$

LAZ014-016-282100-
NORTHEAST LOUISIANA

CITY           SKY/WX    TMP DP  RH WIND       PRES   REMARKS
MONROE         SUNNY     64  42  44 S8        30.17F
TALLULAH       MOSUNNY   58  37  45 E9        30.20F

$$




USA.gov is the U.S. government's official web portal to all federal, state and local government web resources and services.